Flag for Canada Weather past 2 weeks in Quesnel, British Columbia, Canada

Now
41 °F

Partly sunny.


Feels Like: 39 °F
Forecast: 31 / 51 °F
Wind: 3 mph from Northwest

Location: Quesnel Airport


UV Index: 0 (Low)

Visibility: 9 mi


Pressure: 29.95 "Hg

Humidity: 66%

Dew point: 30 °F

Location of QuesnelLocation

Historic Weather in Quesnel

°F

Quesnel temperature yesterday

Maximum temperature yesterday: 63 °F (at 5:00 PM)
Minimum temperature yesterday: 27 °F (at 6:00 AM)
Average temperature yesterday: 43 °F

Past Weeks' High & Low Weather Summary

 TemperatureHumidityPressure
High63 °F (Apr 14, 5:00 PM)100% (Apr 11, 5:00 AM)30.46 "Hg (Apr 11, 5:00 AM)
Low12 °F (Apr 1, 7:00 AM)12% (Apr 13, 6:00 PM)29.67 "Hg (Apr 3, 11:00 PM)
Average39 °F64%29.99 "Hg
* Reported Mar 31 9:00 PM — Apr 15 9:00 PM, Quesnel, Weather by CustomWeather, © 2014

Note: Actual official high and low records may vary slightly from our data, if they occured in-between our weather recording intervals... More about our weather records

Advertising

Historic Weather Conditions — Data for Previous 24 hours

 ConditionsComfort  
Time TempWeatherWind HumidityBarometerVisibility
9:00 PM
Apr 15
41 °FPartly sunny.3 mph66%29.95 "Hg9 mi
8:00 PM46 °FPassing clouds.2 mph53%29.94 "Hg9 mi
7:00 PM50 °FScattered clouds.7 mph40%29.93 "Hg9 mi
6:00 PM52 °FPassing clouds.13 mph41%29.93 "Hg9 mi
4:00 PM52 °FSunny.2 mph30%29.93 "Hg9 mi
3:00 PM52 °FPartly sunny.5 mph35%29.94 "Hg9 mi
2:00 PM54 °FScattered clouds.7 mph30%29.95 "Hg9 mi
1:00 PM54 °FPartly sunny.6 mph30%29.95 "Hg9 mi
12:00 PM52 °FOvercast.3 mph32%29.96 "Hg9 mi
11:00 AM48 °FSunny.2 mph40%29.97 "Hg9 mi
10:00 AM46 °FSunny.3 mph46%29.97 "Hg9 mi
9:00 AM45 °FOvercast.3 mph57%29.98 "Hg9 mi
8:00 AM39 °FOvercast.No wind65%29.98 "Hg9 mi
7:00 AM36 °FOvercast.No wind75%29.97 "Hg9 mi
6:00 AM34 °FOvercast.2 mph75%29.96 "Hg9 mi
5:00 AM36 °FOvercast.2 mph75%29.95 "Hg9 mi
4:00 AM36 °FMostly cloudy.No wind70%29.94 "Hg9 mi
3:00 AM34 °FOvercast.2 mph75%29.94 "Hg9 mi
2:00 AM36 °FPassing clouds.3 mph65%29.93 "Hg9 mi
1:00 AM37 °FOvercast.No wind60%29.93 "Hg9 mi
12:00 AM41 °FPassing clouds.3 mph49%29.91 "Hg9 mi
11:00 PM
Apr 14
45 °FOvercast.3 mph39%29.90 "Hg9 mi
Weather by CustomWeather, © 2014

See weather overview